User: anonymous   Login
Location: Augustenthal
(51.7167°N, 10.2833°E)
Time: 15:44:22
(UTC+00:00)
Language:

ISS - Orbit

View from above orbital plane
View from above orbital plane
View from above satellite
View from above satellite

Ground track
Ground track

The orbit data is extracted from the following two-line orbital elements,

1 25544U 98067A   21211.11452309  .00000429  00000-0  15987-4 0  9991
2 25544  51.6433 130.4443 0001206 216.9557 101.7962 15.48866931295246
Epoch (UTC): 30 July 2021 02:44:54
Eccentricity: 0.0001206
inclination: 51.6433°
perigee height: 419 km
apogee height: 421 km
right ascension of ascending node: 130.4443°
argument of perigee: 216.9557°
revolutions per day: 15.48866931
mean anomaly at epoch: 101.7962°
orbit number at epoch: 29524

The dashed part of the orbit path shows where the satellite is in the earth's shadow,  

DLR